Regional Weather Roundup
Issued by NWS

Home | Current Version | Previous Version | Graphics & Text | Print | Product List | Glossary On
Versions: 1 2 3 4 5 6 7 8 9 10 11 12 13 14 15 16 17 18 19 20 21 22 23 24 25 26 27 28 29 30 31 32 33 34 35 36 37 38 39 40 41 42 43 44 45 46 47 48 49 50
000
ASUS43 KMPX 250710
RWRMN
WEATHER ROUNDUP FOR MINNESOTA
NATIONAL WEATHER SERVICE TWIN CITIES/CHANHASSEN MN
200 AM CDT MON MAY 25 2015


NOTE: "FAIR" INDICATES FEW OR NO CLOUDS BELOW 12,000 FEET WITH NO
SIGNIFICANT WEATHER AND/OR OBSTRUCTIONS TO VISIBILITY. N/A MEANS
CURRENT SKY AND/OR WEATHER CONDITIONS ARE NOT AVAILABLE.

MNZ060>063-068>070-250800-
   Twin Cities Metro

CITY           SKY/WX    TMP DP  RH WIND       PRES   REMARKS
TWIN CITIES    LGT RAIN  58  58 100 E12       29.72F FOG
ST PAUL        LGT RAIN  58  57  97 E9        29.73F
CRYSTAL        LGT RAIN  58  57  97 E6        29.72F FOG
BLAINE         DRIZZLE   59  59 100 E8        29.73F
LAKEVILLE      LGT RAIN  57  57 100 E6        29.71F
EDEN PRAIRIE   LGT RAIN  58  57  97 E5        29.71F FOG
SOUTH ST PAUL  CLOUDY    59  58  96 E5        29.72F FOG
LAKE ELMO      RAIN      57  57 100 E7        29.75F
$$
MNZ001>005-007-008-013>017-022>024-027-028-250800-
   Northwest Minnesota

CITY           SKY/WX    TMP DP  RH WIND       PRES   REMARKS
BEMIDJI        DRIZZLE   56  52  85 CALM      29.85F
HALLOCK        MOCLDY    55  50  82 CALM      29.85F
ROSEAU         CLOUDY    55  50  82 CALM      29.85F
WARROAD        CLOUDY    54  48  82 CALM      29.86F
THIEF RVR FALL CLOUDY    59  48  67 CALM      29.86S
CROOKSTON      CLOUDY    61  52  72 CALM      29.85F
FOSSTON        DRIZZLE   57  48  72 CALM      29.86S
DETROIT LAKES  RAIN      55  54  94 NE5       29.84F
MOORHEAD       LGT RAIN  57  55  94 N6        29.84S
PARK RAPIDS    LGT RAIN  57  54  89 NE5       29.83F
MAHNOMEN       DRIZZLE   58  53  83 CALM      29.84F
$$
MNZ006-009>011-018-025>026-250800-
   North Central Minnesota

CITY           SKY/WX    TMP DP  RH WIND       PRES   REMARKS
BAUDETTE       CLOUDY    56  53  90 CALM      29.84F
FLAG ISLAND    MOCLDY    59  54  82 N3        29.84F
INTL FALLS     CLOUDY    57  49  74 SE3       29.85F
WASKISH        CLOUDY    55  54  94 CALM      29.85F
BIG FORK       CLOUDY    57  52  82 CALM      29.87F
LONGVILLE      LGT RAIN  57  55  94 CALM      29.84F
GRAND RAPIDS   CLOUDY    55  52  88 CALM      29.86F
CRANE LAKE     CLOUDY    52  48  87 CALM      29.88S
ORR            CLOUDY    57  48  72 CALM      29.85F
COOK           CLOUDY    57  52  82 CALM      29.88F
WALKER         DRIZZLE   56  55  95 E3        29.84F
$$
MNZ012-019>021-037-250800-
   Northeast Minnesota

CITY           SKY/WX    TMP DP  RH WIND       PRES   REMARKS
DULUTH         LGT RAIN  58  55  90 E10       29.84F FOG
ELY            CLOUDY    57  48  72 CALM      29.88F
HIBBING        LGT RAIN  55  52  89 CALM      29.87F
EVELETH        DRIZZLE   54  54 100 CALM      29.89F
DULUTH HARBOR  DRIZZLE   45  45 100 E8        29.86F
TWO HARBORS    LGT RAIN  61  55  82 N5        29.85F
GRAND MARAIS     N/A     50  40  68 NE3       29.89S
G MARAIS ARPRT CLOUDY    52  39  62 N3        29.91F
$$
MNZ029>031-032-039>041-046>048-054>057-064-250800-
   West Central Minnesota

CITY           SKY/WX    TMP DP  RH WIND       PRES   REMARKS
FERGUS FALLS   DRIZZLE   57  57 100 NE9G16    29.80F
WHEATON        DRIZZLE   55  55 100 N5        29.79F
MORRIS         RAIN      57  57 100 NE6       29.75F
ALEXANDRIA     LGT RAIN  57  57 100 NE12      29.77F
ELBOW LAKE     DRIZZLE   57  56  98 NE7       29.77F
WADENA         RAIN      55  55 100 NE8       29.80F
GLENWOOD       CLOUDY    57  55  94 NE10      29.76F
APPLETON       LGT RAIN  59  55  88 NE6       29.74F
BENSON         DRIZZLE   57  55  94 CALM      29.75F
ORTONVILLE     LGT RAIN  57  55  94 N6        29.76F
MADISON        CLOUDY    57  55  94 N5        29.75F
WILLMAR        LGT RAIN  57  57 100 NE6       29.74F
$$
MNZ033>034-036-042>043-049>051-058-059-250800-
   Central Minnesota

CITY           SKY/WX    TMP DP  RH WIND       PRES   REMARKS
ST CLOUD       LGT RAIN  57  56  96 E8        29.74F
SAUK CENTRE    DRIZZLE   56  56  97 NE8       29.76F
PAYNESVILLE    DRIZZLE   55  55 100 N7        29.75F
AITKIN         LGT RAIN  57  52  82 NE9       29.79F
PINE RIVER     LGT RAIN  57  55  94 NE7       29.85F
BRAINERD       LGT RAIN  57  56  96 NE10      29.80F FOG
STAPLES        LGT RAIN  55  55 100 NE6       29.79F
LONG PRAIRIE   DRIZZLE   55  54  94 NE6       29.77F
LITTLE FALLS   LGT RAIN  55  54  94 NE3       29.77F
LITCHFIELD     CLOUDY    57  57 100 E5        29.73F
BUFFALO        DRIZZLE   57  55  92 NE7       29.73F
MAPLE LAKE     DRIZZLE   58  57  97 E9        29.74F
$$
MNZ037-044-045-052-053-250800-
   East Central Minnesota

CITY           SKY/WX    TMP DP  RH WIND       PRES   REMARKS
PRINCETON      RAIN      59  57  94 NE7       29.75F
MORA           LGT RAIN  54  54 100 CALM      29.79F
CAMBRIDGE      RAIN      59  52  77 E3        29.74F
RUSH CITY      LGT RAIN  57  56  95 NE6       29.76F
MOOSE LAKE     LGT RAIN  57  55  94 NE6       29.79F
HINCKLEY       LGT RAIN  57  57 100 NE5       29.79F
CLOQUET        LGT RAIN  57  55  94 E7          N/A
MCGREGOR       CLOUDY    55  55 100 NE6       29.82F
$$
MNZ071>073-080-081-089-090-097-098-250800-
   Southwest Minnesota

CITY           SKY/WX    TMP DP  RH WIND       PRES   REMARKS
MONTEVIDEO     DRIZZLE   57  57 100 NE6       29.74F
GRANITE FALLS  DRIZZLE   57  57  99 N6        29.74F
CANBY          LGT RAIN  57  56  96 N3        29.75F
MARSHALL       CLOUDY    57  54  88 N5        29.73F
REDWOOD FALLS  LGT RAIN  58  57  97 CALM      29.70F FOG
OLIVIA         DRIZZLE   54  54 100 NE5       29.71F
PIPESTONE      CLOUDY    57  57 100 N1        29.74F
WINDOM         FOG       59  57  94 CALM      29.72F VSB<1/4
WORTHINGTON    CLOUDY    57  55  94 W3        29.73F VSB 1/2
JACKSON        FOG       59  59 100 CALM      29.72F VSB 1/4
TRACY          DRIZZLE   58  58  98 N3        29.73F
SLAYTON        LGT RAIN  57  57 100 CALM      29.74F
$$
MNZ065>067-074>077-082>085-091>093-250800-
   South Central Minnesota

CITY           SKY/WX    TMP DP  RH WIND       PRES   REMARKS
MANKATO        CLOUDY    61  59  94 SE6       29.70F
NEW ULM        CLOUDY    57  57 100 NE3       29.70F FOG
ST JAMES       FOG       61  61 100 CALM      29.71F VSB 1/4
FAIRMONT       CLOUDY    61  55  82 SW6       29.71F
GLENCOE        LGT RAIN  58  58 100 NE5       29.70F
FARIBAULT      DRIZZLE   61  59  94 SE8       29.72F
OWATONNA       RAIN      61  57  88 SE8       29.71F
WASECA         CLOUDY    59  57  94 S5        29.72F FOG
ALBERT LEA     LGT RAIN  63  63 100 CALM      29.72S
$$
MNZ078>079-086>088-094>096-250800-
   Southeast Minnesota

CITY           SKY/WX    TMP DP  RH WIND       PRES   REMARKS
ROCHESTER      CLOUDY    59  58  96 SE10      29.74F FOG
RED WING       LGT RAIN  57  57 100 E7        29.73F
STANTON        CLOUDY    60  58  91 SE6       29.70F
DODGE CENTER   CLOUDY    61  59  94 SE10      29.73F FOG
WINONA         LGT RAIN  59  57  94 SE5       29.74F
AUSTIN         DRIZZLE   61  61 100 SE5       29.72F
PRESTON        RAIN      58  57  97 E3        29.75F
$$
ABBREVIATIONS USED IN REMARKS
   TC - TEMPERATURES IN CELSIUS
  WCI - WIND CHILL INDEX
   HX - HEAT INDEX
  VSB - VISIBILITY
$$



USA.gov is the U.S. government's official web portal to all federal, state and local government web resources and services.